Lewiston, WA

12:03 AM PST on January 20, 2018 (GMT -0800)
Lewiston-Nez Perce County

Weather History for KLWS - March, 2013

Change the Weather History Date:

Thursday, March 21, 2013

  Actual Average Record
Temperature  
Mean Temperature 42 °F 47 °F  
Max Temperature 49 °F 57 °F 76 °F (1960)
Min Temperature 35 °F 37 °F 20 °F (1913)
Degree Days  
Heating Degree Days 23 18  
Month to date heating degree days 379 440  
Since 1 July heating degree days 3818 4295  
Cooling Degree Days 0 0  
Month to date cooling degree days 0 0  
Year to date cooling degree days 0 0  
Moisture  
Dew Point 24 °F    
Average Humidity 48    
Maximum Humidity 64    
Minimum Humidity 31    
Precipitation  
Precipitation 0.00 in 0.04 in 0.68 in (2012)
Month to date precipitation 0.25 0.77  
Year to date precipitation 1.83 2.63  
Snow  
Snow 0.00 in 0.00 in 1.60 in (1966)
Month to date snowfall 0.0 0.7  
Since 1 July snowfall 2.6 10.5  
Snow Depth 0.00 in    
Sea Level Pressure  
Sea Level Pressure 30.04 in    
Wind  
Wind Speed 9 mph (West)    
Max Wind Speed 28 mph    
Max Gust Speed 37 mph    
Visibility 10 miles    
Events      
T = Trace of Precipitation, MM = Missing Value Source: NWS Daily Summary

Daily Weather History Graph

Daily Weather History Graph

Search for Another Location

Airport or City:

Trip Planner

Search our weather history database for the weather conditions in past years. The results will help you decide how hot, cold, wet, or windy it might be!

Date:

Astronomy

Mar. 21, 2013 Rise Set
Actual Time 6:48 AM PDT 7:02 PM PDT
Civil Twilight 6:18 AM PDT 7:32 PM PDT
Nautical Twilight 5:43 AM PDT 8:08 PM PDT
Astronomical Twilight 5:06 AM PDT 8:44 PM PDT
Moon 1:20 PM PDT (3/21) 3:30 AM PDT (3/21)
Length of Visible Light 13h 14m
Length of Day
12h 14m
Waxing Gibbous, 69% of the Moon is Illuminated
Mar 21
Waxing Gibbous
Mar 27
Full
Apr 2
Last Quarter
Apr 10
New
Apr 18
First Quarter

Hourly Weather History & Observations

Time (PDT) Temp. Windchill Dew Point Humidity Pressure Visibility Wind Dir Wind Speed Gust Speed Precip Events Conditions
12:56 AM 41.0 °F 33.5 °F 21.9 °F 47% 29.90 in 10.0 mi West 13.8 mph 20.7 mph N/A   Partly Cloudy
1:56 AM 41.0 °F 32.8 °F 18.0 °F 40% 29.94 in 10.0 mi WSW 16.1 mph 24.2 mph N/A   Clear
2:56 AM 39.0 °F 32.8 °F 21.9 °F 50% 29.97 in 10.0 mi West 9.2 mph 19.6 mph N/A   Scattered Clouds
3:56 AM 39.0 °F 31.8 °F 21.0 °F 49% 29.99 in 10.0 mi West 11.5 mph 20.7 mph N/A   Overcast
4:56 AM 37.9 °F 29.6 °F 21.0 °F 51% 30.01 in 10.0 mi WSW 13.8 mph 23.0 mph N/A   Overcast
5:56 AM 36.0 °F 33.3 °F 24.1 °F 62% 30.04 in 10.0 mi SW 3.5 mph - N/A   Overcast
6:56 AM 36.0 °F 30.3 °F 25.0 °F 64% 30.05 in 10.0 mi South 6.9 mph - N/A   Overcast
7:56 AM 36.0 °F 32.1 °F 23.0 °F 59% 30.06 in 10.0 mi Variable 4.6 mph - N/A   Mostly Cloudy
8:56 AM 39.0 °F - 23.0 °F 53% 30.06 in 10.0 mi Calm Calm - N/A   Overcast
9:56 AM 41.0 °F - 21.9 °F 47% 30.07 in 10.0 mi Calm Calm - N/A   Overcast
10:56 AM 45.0 °F 37.9 °F 19.9 °F 37% 30.07 in 10.0 mi West 16.1 mph 28.8 mph N/A   Partly Cloudy
11:56 AM 46.0 °F 38.0 °F 21.9 °F 39% 30.06 in 10.0 mi West 21.9 mph 31.1 mph N/A   Partly Cloudy
12:56 PM 45.0 °F 36.9 °F 27.0 °F 49% 30.07 in 10.0 mi WSW 20.7 mph - N/A   Partly Cloudy
1:56 PM 46.9 °F - 18.0 °F 32% 30.05 in 10.0 mi WNW 18.4 mph 28.8 mph N/A   Partly Cloudy
2:56 PM 46.9 °F - 21.0 °F 36% 30.04 in 10.0 mi NW 19.6 mph 25.3 mph N/A   Mostly Cloudy
3:12 PM 44.6 °F 36.4 °F 28.4 °F 53% 30.03 in 10.0 mi NW 20.7 mph 25.3 mph N/A   Scattered Clouds
3:56 PM 43.0 °F 35.4 °F 26.1 °F 51% 30.06 in 10.0 mi West 16.1 mph - N/A   Mostly Cloudy
4:56 PM 39.9 °F 32.1 °F 28.0 °F 63% 30.06 in 10.0 mi WNW 13.8 mph 29.9 mph N/A   Overcast
5:56 PM 42.1 °F 34.9 °F 24.1 °F 49% 30.07 in 10.0 mi West 13.8 mph 21.9 mph N/A   Partly Cloudy
6:56 PM 39.0 °F - 28.0 °F 65% 30.07 in 10.0 mi Calm Calm - N/A   Overcast
7:56 PM 39.0 °F 34.8 °F 27.0 °F 62% 30.07 in 10.0 mi SSW 5.8 mph - N/A   Mostly Cloudy
8:56 PM 37.0 °F 34.5 °F 27.0 °F 67% 30.08 in 10.0 mi ESE 3.5 mph - N/A   Mostly Cloudy
9:56 PM 37.9 °F - 25.0 °F 60% 30.08 in 10.0 mi Calm Calm - N/A   Mostly Cloudy
10:56 PM 37.9 °F 32.1 °F 26.1 °F 62% 30.09 in 10.0 mi West 8.1 mph - N/A   Overcast
11:56 PM 37.0 °F - 27.0 °F 67% 30.08 in 10.0 mi Calm Calm - N/A   Overcast